When you browse on this site, cookies collect data to enhance your experience and personalize the content and advertising you see.
Visit our Privacy Policy to learn more. By continuing to use the site, you agree to this use of cookies and data.
  • In Spain
  • List of Countries
  • For 7 days
  • Water Temperature
  • Satellite Maps
  • Weather Map
  • Weather Widgets
  • user-avatar
    Login

    Hourly Weather Lezhe

    Today, 17 June, Monday

    Time Temperature Precipitation Wind Pressure Humidity
    00:00 +20°C° 0.3 mm 2 mps 735 mmHg 75%
    01:00 +21°C° 0 mm 1 mps 735 mmHg 75%
    02:00 +20°C° 0.2 mm 2 mps 735 mmHg 77%
    03:00 +19°C° 0.2 mm 2 mps 735 mmHg 78%
    04:00 +19°C° 0.2 mm 2 mps 735 mmHg 79%
    05:00 +21°C° 0.1 mm 2 mps 735 mmHg 76%
    06:00 +23°C° 0.1 mm 2 mps 736 mmHg 73%
    07:00 +25°C° 0.1 mm 2 mps 736 mmHg 70%
    08:00 +26°C° 0 mm 2 mps 736 mmHg 64%
    09:00 +28°C° 0 mm 2 mps 736 mmHg 57%
    10:00 +30°C° 0 mm 2 mps 736 mmHg 51%
    11:00 +30°C° 0.1 mm 2 mps 736 mmHg 50%
    12:00 +30°C° 0.1 mm 2 mps 736 mmHg 50%
    13:00 +31°C° 0.1 mm 2 mps 736 mmHg 49%
    14:00 +30°C° 0.1 mm 2 mps 736 mmHg 51%
    15:00 +30°C° 0.1 mm 2 mps 736 mmHg 53%
    16:00 +30°C° 0.1 mm 2 mps 735 mmHg 55%
    17:00 +28°C° 0.1 mm 1 mps 735 mmHg 61%
    18:00 +27°C° 0.1 mm 1 mps 736 mmHg 67%
    19:00 +25°C° 0.1 mm 1 mps 736 mmHg 73%
    20:00 +24°C° 0.3 mm 1 mps 736 mmHg 74%
    21:00 +23°C° 0.3 mm 1 mps 736 mmHg 76%
    22:00 +22°C° 0.3 mm 1 mps 736 mmHg 78%
    23:00 +22°C° 0.3 mm 1 mps 736 mmHg 78%

    Tomorrow, 18 June, Tuesday

    Time Temperature Precipitation Wind Pressure Humidity
    00:00 +22°C° 0.3 mm 1 mps 736 mmHg 79%
    01:00 +21°C° 0.3 mm 1 mps 736 mmHg 80%
    02:00 +21°C° 0.1 mm 1 mps 736 mmHg 80%
    03:00 +21°C° 0.1 mm 1 mps 736 mmHg 80%
    04:00 +21°C° 0.1 mm 1 mps 736 mmHg 79%
    05:00 +22°C° 0 mm 1 mps 736 mmHg 76%
    06:00 +23°C° 0 mm 1 mps 737 mmHg 72%
    07:00 +25°C° 0 mm 1 mps 737 mmHg 69%
    08:00 +26°C° 0 mm 1 mps 737 mmHg 63%
    09:00 +28°C° 0 mm 1 mps 737 mmHg 57%
    10:00 +30°C° 0 mm 1 mps 737 mmHg 52%
    11:00 +30°C° 0.2 mm 1 mps 736 mmHg 52%
    12:00 +30°C° 0.2 mm 2 mps 736 mmHg 53%
    13:00 +30°C° 0.2 mm 3 mps 736 mmHg 53%
    14:00 +29°C° 0.7 mm 2 mps 736 mmHg 57%
    15:00 +29°C° 0.7 mm 2 mps 736 mmHg 60%
    16:00 +28°C° 0.7 mm 2 mps 735 mmHg 64%
    17:00 +26°C° 0.2 mm 1 mps 735 mmHg 70%
    18:00 +25°C° 0.2 mm 1 mps 735 mmHg 76%
    19:00 +22°C° 0.2 mm 0 mps 735 mmHg 82%
    20:00 +21°C° 0 mm 0 mps 736 mmHg 82%
    21:00 +22°C° 0 mm 1 mps 736 mmHg 83%
    22:00 +22°C° 0 mm 1 mps 736 mmHg 84%
    23:00 +21°C° 0 mm 1 mps 736 mmHg 83%

    Day after tomorrow, 19 June, Wednesday

    Time Temperature Precipitation Wind Pressure Humidity
    00:00 +21°C° 0 mm 1 mps 736 mmHg 83%
    01:00 +19°C° 0 mm 0 mps 736 mmHg 83%
    02:00 +21°C° 0 mm 1 mps 735 mmHg 83%
    03:00 +20°C° 0 mm 1 mps 735 mmHg 83%
    04:00 +20°C° 0 mm 1 mps 735 mmHg 83%
    05:00 +22°C° 0 mm 1 mps 735 mmHg 78%
    06:00 +21°C° 0 mm 0 mps 736 mmHg 73%
    07:00 +23°C° 0 mm 0 mps 736 mmHg 68%
    08:00 +26°C° 0.3 mm 1 mps 736 mmHg 64%
    09:00 +27°C° 0.3 mm 1 mps 736 mmHg 61%
    10:00 +29°C° 0.3 mm 2 mps 736 mmHg 57%
    11:00 +29°C° 0.7 mm 2 mps 735 mmHg 58%
    12:00 +29°C° 0.7 mm 3 mps 735 mmHg 59%
    13:00 +29°C° 0.7 mm 3 mps 735 mmHg 60%
    14:00 +28°C° 0.5 mm 3 mps 735 mmHg 61%
    15:00 +27°C° 0.5 mm 2 mps 735 mmHg 63%
    16:00 +27°C° 0.5 mm 2 mps 734 mmHg 64%
    17:00 +25°C° 0.1 mm 1 mps 734 mmHg 70%
    18:00 +24°C° 0.1 mm 1 mps 735 mmHg 76%
    19:00 +21°C° 0.1 mm 0 mps 735 mmHg 82%
    20:00 +20°C° 0 mm 0 mps 735 mmHg 83%
    21:00 +19°C° 0 mm 0 mps 735 mmHg 84%
    22:00 +19°C° 0 mm 0 mps 735 mmHg 86%
    23:00 +19°C° 0 mm 0 mps 735 mmHg 85%

    20 June, Thursday

    Time Temperature Precipitation Wind Pressure Humidity
    00:00 +18°C° 0 mm 0 mps 735 mmHg 85%
    01:00 +18°C° 0 mm 0 mps 735 mmHg 84%
    02:00 +20°C° 0 mm 1 mps 735 mmHg 83%
    03:00 +20°C° 0 mm 1 mps 735 mmHg 82%
    04:00 +20°C° 0 mm 1 mps 735 mmHg 81%
    05:00 +21°C° 0 mm 1 mps 735 mmHg 76%
    06:00 +21°C° 0 mm 0 mps 735 mmHg 71%
    07:00 +23°C° 0 mm 0 mps 735 mmHg 66%
    08:00 +26°C° 0 mm 1 mps 735 mmHg 62%
    09:00 +27°C° 0 mm 1 mps 735 mmHg 59%
    10:00 +29°C° 0 mm 1 mps 735 mmHg 55%
    11:00 +29°C° 0.3 mm 2 mps 735 mmHg 57%
    12:00 +29°C° 0.3 mm 2 mps 735 mmHg 58%
    13:00 +29°C° 0.3 mm 3 mps 735 mmHg 59%
    14:00 +29°C° 0.6 mm 2 mps 735 mmHg 60%
    15:00 +28°C° 0.6 mm 2 mps 735 mmHg 62%
    16:00 +28°C° 0.6 mm 2 mps 735 mmHg 63%
    17:00 +26°C° 0.1 mm 1 mps 735 mmHg 69%
    18:00 +25°C° 0.1 mm 1 mps 735 mmHg 76%
    19:00 +21°C° 0.1 mm 0 mps 735 mmHg 82%
    20:00 +21°C° 0 mm 0 mps 735 mmHg 84%
    21:00 +22°C° 0 mm 1 mps 735 mmHg 85%
    22:00 +22°C° 0 mm 1 mps 736 mmHg 86%
    23:00 +21°C° 0 mm 1 mps 736 mmHg 85%

    21 June, Friday

    Time Temperature Precipitation Wind Pressure Humidity
    00:00 +21°C° 0 mm 1 mps 736 mmHg 85%
    01:00 +21°C° 0 mm 1 mps 736 mmHg 84%
    02:00 +21°C° 0 mm 1 mps 736 mmHg 84%
    03:00 +21°C° 0 mm 1 mps 736 mmHg 83%
    04:00 +20°C° 0 mm 1 mps 736 mmHg 83%
    05:00 +22°C° 0 mm 1 mps 736 mmHg 78%
    06:00 +22°C° 0 mm 0 mps 736 mmHg 73%
    07:00 +24°C° 0 mm 0 mps 736 mmHg 67%
    08:00 +27°C° 0 mm 1 mps 736 mmHg 62%
    09:00 +29°C° 0 mm 1 mps 736 mmHg 58%
    10:00 +30°C° 0 mm 1 mps 736 mmHg 53%
    11:00 +30°C° 0 mm 2 mps 736 mmHg 52%
    12:00 +31°C° 0 mm 2 mps 736 mmHg 51%
    13:00 +31°C° 0 mm 2 mps 736 mmHg 51%
    14:00 +30°C° 0.4 mm 2 mps 736 mmHg 56%
    15:00 +29°C° 0.4 mm 2 mps 736 mmHg 62%
    16:00 +28°C° 0.4 mm 2 mps 735 mmHg 67%
    17:00 +27°C° 0.3 mm 1 mps 735 mmHg 72%
    18:00 +26°C° 0.3 mm 1 mps 735 mmHg 77%
    19:00 +22°C° 0.3 mm 0 mps 735 mmHg 83%
    20:00 +22°C° 0 mm 0 mps 736 mmHg 83%
    21:00 +21°C° 0 mm 0 mps 736 mmHg 84%
    22:00 +21°C° 0 mm 0 mps 736 mmHg 85%
    23:00 +22°C° 0 mm 1 mps 736 mmHg 84%

    22 June, Saturday

    Time Temperature Precipitation Wind Pressure Humidity
    00:00 +22°C° 0 mm 1 mps 736 mmHg 84%
    01:00 +22°C° 0 mm 1 mps 736 mmHg 84%
    02:00 +21°C° 0 mm 1 mps 736 mmHg 83%
    03:00 +21°C° 0 mm 1 mps 736 mmHg 83%
    04:00 +19°C° 0 mm 0 mps 736 mmHg 82%
    05:00 +20°C° 0 mm 0 mps 736 mmHg 78%
    06:00 +22°C° 0 mm 0 mps 736 mmHg 73%
    07:00 +24°C° 0 mm 0 mps 737 mmHg 68%
    08:00 +27°C° 0 mm 1 mps 737 mmHg 63%
    09:00 +29°C° 0 mm 1 mps 737 mmHg 58%
    10:00 +31°C° 0 mm 1 mps 737 mmHg 53%
    11:00 +31°C° 0 mm 1 mps 736 mmHg 51%
    12:00 +32°C° 0 mm 1 mps 736 mmHg 48%
    13:00 +32°C° 0 mm 2 mps 736 mmHg 46%
    14:00 +32°C° 0 mm 2 mps 736 mmHg 49%
    15:00 +31°C° 0 mm 2 mps 736 mmHg 52%
    16:00 +30°C° 0 mm 2 mps 735 mmHg 55%
    17:00 +29°C° 0 mm 1 mps 736 mmHg 61%
    18:00 +27°C° 0 mm 1 mps 736 mmHg 68%
    19:00 +25°C° 0 mm 1 mps 736 mmHg 74%
    20:00 +25°C° 0 mm 1 mps 736 mmHg 74%
    21:00 +24°C° 0 mm 1 mps 736 mmHg 74%
    22:00 +24°C° 0 mm 1 mps 736 mmHg 74%
    23:00 +23°C° 0 mm 1 mps 736 mmHg 73%
    Show more